Time,TemperatureF,DewpointF,PressureIn,WindDirection,WindDirectionDegrees,WindSpeedMPH,WindSpeedGustMPH,Humidity,HourlyPrecipIn,Conditions,Clouds,dailyrainin,SoftwareType,DateUTC
2013-06-02 00:05:00,75.1,67.8,30.06,SW,225,0.0,0.0,78,0.00,,,0.00,Wunderground v.1.15,2013-06-02 04:05:00,
2013-06-02 00:15:00,74.9,67.9,30.06,WSW,249,0.0,0.0,79,0.00,,,0.00,Wunderground v.1.15,2013-06-02 04:15:00,
2013-06-02 00:20:00,74.8,67.8,30.06,WSW,250,0.0,0.0,79,0.00,,,0.00,Wunderground v.1.15,2013-06-02 04:20:00,
2013-06-02 00:25:00,74.6,67.7,30.06,SW,236,0.0,0.0,79,0.00,,,0.00,Wunderground v.1.15,2013-06-02 04:25:00,
2013-06-02 00:30:00,74.4,67.8,30.06,SW,236,0.0,0.0,80,0.00,,,0.00,Wunderground v.1.15,2013-06-02 04:30:00,
2013-06-02 00:35:00,74.3,67.7,30.05,SSW,204,0.0,0.0,80,0.00,,,0.00,Wunderground v.1.15,2013-06-02 04:35:00,
2013-06-02 00:45:00,74.1,67.5,30.05,SSE,159,0.0,0.0,80,0.00,,,0.00,Wunderground v.1.15,2013-06-02 04:45:00,
2013-06-02 00:50:00,74.0,67.4,30.05,SSW,204,0.0,0.0,80,0.00,,,0.00,Wunderground v.1.15,2013-06-02 04:50:00,
2013-06-02 00:55:00,73.9,67.3,30.05,WNW,296,0.0,0.0,80,0.00,,,0.00,Wunderground v.1.15,2013-06-02 04:55:00,
2013-06-02 01:00:00,73.7,67.5,30.05,WNW,296,0.0,0.0,81,0.00,,,0.00,Wunderground v.1.15,2013-06-02 05:00:00,
2013-06-02 01:05:00,73.6,67.4,30.05,SW,225,0.0,0.0,81,0.00,,,0.00,Wunderground v.1.15,2013-06-02 05:05:00,
2013-06-02 01:15:00,73.4,67.2,30.05,SW,225,0.0,0.0,81,0.00,,,0.00,Wunderground v.1.15,2013-06-02 05:15:00,
2013-06-02 01:25:00,73.1,67.3,30.05,SW,233,0.0,2.0,82,0.00,,,0.00,Wunderground v.1.15,2013-06-02 05:25:00,
2013-06-02 01:30:00,73.1,67.3,30.04,SSW,210,0.0,0.0,82,0.00,,,0.00,Wunderground v.1.15,2013-06-02 05:30:00,
2013-06-02 01:35:00,73.1,67.3,30.04,SSW,210,0.0,0.0,82,0.00,,,0.00,Wunderground v.1.15,2013-06-02 05:35:00,
2013-06-02 01:40:00,73.0,67.2,30.04,SSW,210,0.0,0.0,82,0.00,,,0.00,Wunderground v.1.15,2013-06-02 05:40:00,
2013-06-02 01:45:00,72.9,67.1,30.04,SSW,210,0.0,0.0,82,0.00,,,0.00,Wunderground v.1.15,2013-06-02 05:45:00,
2013-06-02 01:55:00,72.7,66.9,30.04,South,175,0.0,0.0,82,0.00,,,0.00,Wunderground v.1.15,2013-06-02 05:55:00,
2013-06-02 02:00:00,72.6,67.1,30.04,South,174,0.0,0.0,83,0.00,,,0.00,Wunderground v.1.15,2013-06-02 06:00:00,
2013-06-02 02:05:00,72.4,66.9,30.03,SW,224,0.0,0.0,83,0.00,,,0.00,Wunderground v.1.15,2013-06-02 06:05:00,
2013-06-02 02:15:00,72.2,67.1,30.03,SW,223,0.0,1.0,84,0.00,,,0.00,Wunderground v.1.15,2013-06-02 06:15:00,
2013-06-02 02:20:00,72.0,66.9,30.03,WSW,245,0.0,1.0,84,0.00,,,0.00,Wunderground v.1.15,2013-06-02 06:20:00,
2013-06-02 02:25:00,71.9,66.8,30.03,NW,311,0.0,1.0,84,0.00,,,0.00,Wunderground v.1.15,2013-06-02 06:25:00,
2013-06-02 02:35:00,71.7,66.9,30.03,WSW,256,0.0,0.0,85,0.00,,,0.00,Wunderground v.1.15,2013-06-02 06:35:00,
2013-06-02 02:40:00,71.6,66.8,30.02,WSW,256,0.0,0.0,85,0.00,,,0.00,Wunderground v.1.15,2013-06-02 06:40:00,
2013-06-02 02:45:00,71.5,66.8,30.02,WSW,256,0.0,0.0,85,0.00,,,0.00,Wunderground v.1.15,2013-06-02 06:45:00,
2013-06-02 02:50:00,71.4,66.7,30.02,WSW,256,0.0,0.0,85,0.00,,,0.00,Wunderground v.1.15,2013-06-02 06:50:00,
2013-06-02 02:55:00,71.3,66.9,30.02,WSW,256,0.0,0.0,86,0.00,,,0.00,Wunderground v.1.15,2013-06-02 06:55:00,
2013-06-02 03:05:00,71.2,66.8,30.01,WSW,256,0.0,0.0,86,0.00,,,0.00,Wunderground v.1.15,2013-06-02 07:05:00,
2013-06-02 03:15:00,70.9,66.8,30.01,WSW,256,0.0,0.0,87,0.00,,,0.00,Wunderground v.1.15,2013-06-02 07:15:00,
2013-06-02 03:20:00,70.8,66.7,30.01,WSW,256,0.0,0.0,87,0.00,,,0.00,Wunderground v.1.15,2013-06-02 07:20:00,
2013-06-02 03:25:00,70.7,66.6,30.01,WSW,256,0.0,0.0,87,0.00,,,0.00,Wunderground v.1.15,2013-06-02 07:25:00,
2013-06-02 03:30:00,70.6,66.5,30.00,WSW,256,0.0,0.0,87,0.00,,,0.00,Wunderground v.1.15,2013-06-02 07:30:00,
2013-06-02 03:35:00,70.4,66.7,30.00,WSW,256,0.0,0.0,88,0.00,,,0.00,Wunderground v.1.15,2013-06-02 07:35:00,
2013-06-02 03:45:00,70.2,66.5,30.00,WSW,256,0.0,0.0,88,0.00,,,0.00,Wunderground v.1.15,2013-06-02 07:45:00,
2013-06-02 03:50:00,70.1,66.4,30.00,SSW,207,0.0,0.0,88,0.00,,,0.00,Wunderground v.1.15,2013-06-02 07:50:00,
2013-06-02 03:55:00,69.9,66.2,30.00,SSW,207,0.0,0.0,88,0.00,,,0.00,Wunderground v.1.15,2013-06-02 07:55:00,
2013-06-02 04:05:00,69.7,66.3,29.99,SSW,207,0.0,0.0,89,0.00,,,0.00,Wunderground v.1.15,2013-06-02 08:05:00,
2013-06-02 04:15:00,69.5,66.1,30.00,SSW,207,0.0,0.0,89,0.00,,,0.00,Wunderground v.1.15,2013-06-02 08:15:00,
2013-06-02 04:20:00,69.3,66.2,30.00,SSW,207,0.0,0.0,90,0.00,,,0.00,Wunderground v.1.15,2013-06-02 08:20:00,
2013-06-02 04:25:00,69.2,66.1,30.00,SSW,207,0.0,0.0,90,0.00,,,0.00,Wunderground v.1.15,2013-06-02 08:25:00,
2013-06-02 04:30:00,69.1,66.0,30.00,SSW,207,0.0,0.0,90,0.00,,,0.00,Wunderground v.1.15,2013-06-02 08:30:00,
2013-06-02 04:35:00,69.0,65.9,30.00,SSW,207,0.0,0.0,90,0.00,,,0.00,Wunderground v.1.15,2013-06-02 08:35:00,
2013-06-02 04:45:00,68.8,66.1,30.00,SSW,207,0.0,0.0,91,0.00,,,0.00,Wunderground v.1.15,2013-06-02 08:45:00,
2013-06-02 04:50:00,68.8,66.1,30.00,SSW,207,0.0,0.0,91,0.00,,,0.00,Wunderground v.1.15,2013-06-02 08:50:00,
2013-06-02 04:55:00,68.8,66.4,30.00,SSW,207,0.0,0.0,92,0.00,,,0.00,Wunderground v.1.15,2013-06-02 08:55:00,
2013-06-02 05:05:00,68.8,66.4,29.99,SSW,207,0.0,0.0,92,0.00,,,0.00,Wunderground v.1.15,2013-06-02 09:05:00,
2013-06-02 05:15:00,68.7,66.3,29.99,SSW,211,0.0,1.0,92,0.00,,,0.00,Wunderground v.1.15,2013-06-02 09:15:00,
2013-06-02 05:20:00,68.7,66.3,30.00,West,265,0.0,0.0,92,0.00,,,0.00,Wunderground v.1.15,2013-06-02 09:20:00,
2013-06-02 05:25:00,68.7,66.6,30.00,SW,234,0.0,0.0,93,0.00,,,0.00,Wunderground v.1.15,2013-06-02 09:25:00,
2013-06-02 05:30:00,68.6,66.5,30.00,SW,234,0.0,0.0,93,0.00,,,0.00,Wunderground v.1.15,2013-06-02 09:30:00,
2013-06-02 05:35:00,68.6,66.5,30.00,SW,234,0.0,0.0,93,0.00,,,0.00,Wunderground v.1.15,2013-06-02 09:35:00,
2013-06-02 05:40:00,68.5,66.4,30.00,SW,234,0.0,0.0,93,0.00,,,0.00,Wunderground v.1.15,2013-06-02 09:40:00,
2013-06-02 05:50:00,68.5,66.4,30.00,SW,234,0.0,0.0,93,0.00,,,0.00,Wunderground v.1.15,2013-06-02 09:50:00,
2013-06-02 05:55:00,68.6,66.5,30.00,SW,234,0.0,0.0,93,0.00,,,0.00,Wunderground v.1.15,2013-06-02 09:55:00,
2013-06-02 06:00:00,68.5,66.4,30.00,SW,234,0.0,0.0,93,0.00,,,0.00,Wunderground v.1.15,2013-06-02 10:00:00,
2013-06-02 06:05:00,68.5,66.4,30.01,SW,234,0.0,0.0,93,0.00,,,0.00,Wunderground v.1.15,2013-06-02 10:05:00,
2013-06-02 06:15:00,68.6,66.8,30.01,SW,234,0.0,0.0,94,0.00,,,0.00,Wunderground v.1.15,2013-06-02 10:15:00,
2013-06-02 06:20:00,68.6,66.8,30.01,West,277,0.0,1.0,94,0.00,,,0.00,Wunderground v.1.15,2013-06-02 10:20:00,
2013-06-02 06:30:00,68.7,66.9,30.02,WSW,250,0.0,2.0,94,0.00,,,0.00,Wunderground v.1.15,2013-06-02 10:30:00,
2013-06-02 06:35:00,68.8,67.0,30.02,WSW,250,0.0,2.0,94,0.00,,,0.00,Wunderground v.1.15,2013-06-02 10:35:00,
2013-06-02 06:40:00,68.8,67.0,30.02,WSW,250,0.0,0.0,94,0.00,,,0.00,Wunderground v.1.15,2013-06-02 10:40:00,
2013-06-02 06:45:00,68.8,67.0,30.02,WSW,249,0.0,0.0,94,0.00,,,0.00,Wunderground v.1.15,2013-06-02 10:45:00,
2013-06-02 06:50:00,68.9,67.1,30.02,WSW,249,0.0,0.0,94,0.00,,,0.00,Wunderground v.1.15,2013-06-02 10:50:00,
2013-06-02 07:00:00,69.1,67.3,30.02,WSW,249,0.0,0.0,94,0.00,,,0.00,Wunderground v.1.15,2013-06-02 11:00:00,
2013-06-02 07:05:00,69.2,67.4,30.03,WSW,249,0.0,0.0,94,0.00,,,0.00,Wunderground v.1.15,2013-06-02 11:05:00,
2013-06-02 07:15:00,69.5,67.7,30.02,WSW,248,0.0,0.0,94,0.00,,,0.00,Wunderground v.1.15,2013-06-02 11:15:00,
2013-06-02 07:20:00,69.6,67.8,30.03,West,265,0.0,0.0,94,0.00,,,0.00,Wunderground v.1.15,2013-06-02 11:20:00,
2013-06-02 07:25:00,69.8,67.7,30.03,NW,314,1.0,3.0,93,0.00,,,0.00,Wunderground v.1.15,2013-06-02 11:25:00,
2013-06-02 07:35:00,69.9,67.8,30.03,SW,221,1.0,2.0,93,0.00,,,0.00,Wunderground v.1.15,2013-06-02 11:35:00,
2013-06-02 07:40:00,70.0,67.9,30.03,SW,221,0.0,0.0,93,0.00,,,0.00,Wunderground v.1.15,2013-06-02 11:40:00,
2013-06-02 07:45:00,70.2,68.1,30.02,SW,221,0.0,0.0,93,0.00,,,0.00,Wunderground v.1.15,2013-06-02 11:45:00,
2013-06-02 07:50:00,70.3,67.9,30.02,SW,221,0.0,1.0,92,0.00,,,0.00,Wunderground v.1.15,2013-06-02 11:50:00,
2013-06-02 07:55:00,70.4,68.0,30.02,South,185,0.0,1.0,92,0.00,,,0.00,Wunderground v.1.15,2013-06-02 11:55:00,
2013-06-02 08:05:00,70.6,68.2,30.02,SW,219,1.0,1.0,92,0.00,,,0.00,Wunderground v.1.15,2013-06-02 12:05:00,
2013-06-02 08:15:00,70.8,68.7,30.02,West,260,1.0,1.0,93,0.00,,,0.00,Wunderground v.1.15,2013-06-02 12:15:00,
2013-06-02 08:20:00,70.8,68.4,30.02,West,263,1.0,1.0,92,0.00,,,0.00,Wunderground v.1.15,2013-06-02 12:20:00,
2013-06-02 08:25:00,70.9,68.5,30.02,SSE,155,1.0,1.0,92,0.00,,,0.00,Wunderground v.1.15,2013-06-02 12:25:00,
2013-06-02 08:30:00,70.9,68.1,30.02,SW,229,1.0,1.0,91,0.00,,,0.00,Wunderground v.1.15,2013-06-02 12:30:00,
2013-06-02 08:40:00,71.3,68.5,30.02,SSW,213,1.0,1.0,91,0.00,,,0.00,Wunderground v.1.15,2013-06-02 12:40:00,
2013-06-02 08:45:00,71.4,68.6,30.03,South,186,1.0,1.0,91,0.00,,,0.00,Wunderground v.1.15,2013-06-02 12:45:00,
2013-06-02 08:50:00,71.6,68.5,30.02,SSW,211,1.0,2.0,90,0.00,,,0.00,Wunderground v.1.15,2013-06-02 12:50:00,
2013-06-02 08:55:00,72.1,68.7,30.03,South,188,2.0,2.0,89,0.00,,,0.00,Wunderground v.1.15,2013-06-02 12:55:00,
2013-06-02 09:05:00,72.6,68.8,30.03,South,191,1.0,2.0,88,0.00,,,0.00,Wunderground v.1.15,2013-06-02 13:05:00,
2013-06-02 09:15:00,73.2,69.1,30.03,WNW,290,2.0,4.0,87,0.00,,,0.00,Wunderground v.1.15,2013-06-02 13:15:00,
2013-06-02 09:20:00,73.3,68.9,30.02,SSW,194,1.0,1.0,86,0.00,,,0.00,Wunderground v.1.15,2013-06-02 13:20:00,
2013-06-02 09:25:00,73.4,68.6,30.02,SE,136,1.0,1.0,85,0.00,,,0.00,Wunderground v.1.15,2013-06-02 13:25:00,
2013-06-02 09:30:00,73.6,69.2,30.01,SW,221,1.0,2.0,86,0.00,,,0.00,Wunderground v.1.15,2013-06-02 13:30:00,
2013-06-02 09:40:00,74.0,68.9,30.01,South,173,1.0,1.0,84,0.00,,,0.00,Wunderground v.1.15,2013-06-02 13:40:00,
2013-06-02 09:45:00,74.4,68.9,30.01,SSW,209,1.0,2.0,83,0.00,,,0.00,Wunderground v.1.15,2013-06-02 13:45:00,
2013-06-02 09:50:00,74.6,68.7,30.01,SSE,151,1.0,1.0,82,0.00,,,0.00,Wunderground v.1.15,2013-06-02 13:50:00,
2013-06-02 09:55:00,74.8,68.9,30.01,ESE,113,1.0,3.0,82,0.00,,,0.00,Wunderground v.1.15,2013-06-02 13:55:00,
2013-06-02 10:00:00,75.1,68.9,30.01,SW,235,1.0,1.0,81,0.00,,,0.00,Wunderground v.1.15,2013-06-02 14:00:00,
2013-06-02 10:05:00,75.4,69.2,30.01,NW,321,1.0,1.0,81,0.00,,,0.00,Wunderground v.1.15,2013-06-02 14:05:00,
2013-06-02 10:15:00,75.8,69.2,30.01,SSW,204,1.0,4.0,80,0.00,,,0.00,Wunderground v.1.15,2013-06-02 14:15:00,
2013-06-02 10:20:00,75.9,68.9,30.01,WSW,244,1.0,2.0,79,0.00,,,0.00,Wunderground v.1.15,2013-06-02 14:20:00,
2013-06-02 10:25:00,75.8,68.8,30.01,NNW,338,2.0,2.0,79,0.00,,,0.00,Wunderground v.1.15,2013-06-02 14:25:00,
2013-06-02 10:30:00,76.0,69.4,30.01,South,173,1.0,1.0,80,0.00,,,0.00,Wunderground v.1.15,2013-06-02 14:30:00,
2013-06-02 10:35:00,76.2,69.2,30.01,WNW,299,1.0,2.0,79,0.00,,,0.00,Wunderground v.1.15,2013-06-02 14:35:00,
2013-06-02 10:45:00,76.6,68.8,30.00,SE,145,2.0,2.0,77,0.00,,,0.00,Wunderground v.1.15,2013-06-02 14:45:00,
2013-06-02 10:50:00,76.9,69.1,30.01,SSE,165,1.0,1.0,77,0.00,,,0.00,Wunderground v.1.15,2013-06-02 14:50:00,
2013-06-02 10:55:00,77.0,68.9,30.01,SW,234,1.0,1.0,76,0.00,,,0.00,Wunderground v.1.15,2013-06-02 14:55:00,
2013-06-02 11:00:00,77.3,69.1,30.00,SSE,157,1.0,1.0,76,0.00,,,0.00,Wunderground v.1.15,2013-06-02 15:00:00,
2013-06-02 11:05:00,77.4,68.9,30.00,WSW,246,2.0,2.0,75,0.00,,,0.00,Wunderground v.1.15,2013-06-02 15:05:00,
2013-06-02 11:15:00,77.7,69.1,30.00,SSW,199,2.0,4.0,75,0.00,,,0.00,Wunderground v.1.15,2013-06-02 15:15:00,
2013-06-02 11:25:00,78.6,69.6,30.00,SW,229,2.0,2.0,74,0.00,,,0.00,Wunderground v.1.15,2013-06-02 15:25:00,
2013-06-02 11:30:00,78.7,69.7,30.00,South,190,1.0,1.0,74,0.00,,,0.00,Wunderground v.1.15,2013-06-02 15:30:00,
2013-06-02 11:35:00,78.9,69.5,30.00,SW,217,1.0,2.0,73,0.00,,,0.00,Wunderground v.1.15,2013-06-02 15:35:00,
2013-06-02 11:40:00,79.3,69.5,29.99,SSW,194,1.0,1.0,72,0.00,,,0.00,Wunderground v.1.15,2013-06-02 15:40:00,
2013-06-02 11:50:00,79.8,70.0,29.99,WSW,240,1.0,1.0,72,0.00,,,0.00,Wunderground v.1.15,2013-06-02 15:50:00,
2013-06-02 11:55:00,80.2,69.9,29.99,West,279,1.0,1.0,71,0.00,,,0.00,Wunderground v.1.15,2013-06-02 15:55:00,
2013-06-02 12:00:00,80.4,70.1,29.99,WSW,242,1.0,1.0,71,0.00,,,0.00,Wunderground v.1.15,2013-06-02 16:00:00,
2013-06-02 12:05:00,80.7,69.6,30.00,South,170,1.0,1.0,69,0.00,,,0.00,Wunderground v.1.15,2013-06-02 16:05:00,
2013-06-02 12:15:00,80.9,69.3,30.00,South,173,1.0,5.0,68,0.00,,,0.00,Wunderground v.1.15,2013-06-02 16:15:00,
2013-06-02 12:20:00,80.9,69.8,30.00,SW,221,1.0,1.0,69,0.00,,,0.00,Wunderground v.1.15,2013-06-02 16:20:00,
2013-06-02 12:25:00,81.1,69.5,30.00,SW,221,1.0,1.0,68,0.00,,,0.00,Wunderground v.1.15,2013-06-02 16:25:00,
2013-06-02 12:30:00,81.4,69.8,29.99,South,169,1.0,1.0,68,0.00,,,0.00,Wunderground v.1.15,2013-06-02 16:30:00,
2013-06-02 12:40:00,82.0,70.4,29.99,SW,235,1.0,1.0,68,0.00,,,0.00,Wunderground v.1.15,2013-06-02 16:40:00,
2013-06-02 12:45:00,82.0,70.4,29.99,WSW,254,1.0,1.0,68,0.00,,,0.00,Wunderground v.1.15,2013-06-02 16:45:00,
2013-06-02 12:50:00,82.2,70.1,29.99,SSE,149,1.0,1.0,67,0.00,,,0.00,Wunderground v.1.15,2013-06-02 16:50:00,
2013-06-02 12:55:00,82.4,69.9,29.99,South,171,1.0,4.0,66,0.00,,,0.00,Wunderground v.1.15,2013-06-02 16:55:00,
2013-06-02 13:05:00,82.2,70.6,29.99,SSE,147,1.0,2.0,68,0.00,,,0.00,Wunderground v.1.15,2013-06-02 17:05:00,
2013-06-02 13:15:00,82.8,70.7,29.99,SSW,198,1.0,1.0,67,0.00,,,0.00,Wunderground v.1.15,2013-06-02 17:15:00,
2013-06-02 13:20:00,82.9,70.8,29.99,SSE,162,1.0,1.0,67,0.00,,,0.00,Wunderground v.1.15,2013-06-02 17:20:00,
2013-06-02 13:25:00,83.0,71.3,29.98,SSE,161,1.0,5.0,68,0.00,,,0.00,Wunderground v.1.15,2013-06-02 17:25:00,
2013-06-02 13:30:00,83.3,70.8,29.98,South,188,1.0,2.0,66,0.00,,,0.00,Wunderground v.1.15,2013-06-02 17:30:00,
2013-06-02 13:35:00,83.5,70.5,29.98,SW,221,2.0,3.0,65,0.00,,,0.00,Wunderground v.1.15,2013-06-02 17:35:00,
2013-06-02 13:45:00,83.4,70.8,29.98,SW,234,0.0,1.0,66,0.00,,,0.00,Wunderground v.1.15,2013-06-02 17:45:00,
2013-06-02 13:50:00,83.2,70.7,29.98,SSE,151,0.0,3.0,66,0.00,,,0.00,Wunderground v.1.15,2013-06-02 17:50:00,
2013-06-02 13:55:00,82.8,69.4,29.98,WSW,244,1.0,3.0,64,0.00,,,0.00,Wunderground v.1.15,2013-06-02 17:55:00,
2013-06-02 14:00:00,82.6,70.1,29.98,South,180,2.0,2.0,66,0.00,,,0.00,Wunderground v.1.15,2013-06-02 18:00:00,
2013-06-02 14:05:00,82.7,70.2,29.98,WSW,257,1.0,2.0,66,0.00,,,0.00,Wunderground v.1.15,2013-06-02 18:05:00,
2013-06-02 14:15:00,83.3,70.3,29.98,SW,231,1.0,1.0,65,0.00,,,0.00,Wunderground v.1.15,2013-06-02 18:15:00,
2013-06-02 14:25:00,83.5,70.9,29.98,SW,225,0.0,0.0,66,0.00,,,0.00,Wunderground v.1.15,2013-06-02 18:25:00,
2013-06-02 14:30:00,83.7,70.2,29.97,SW,225,0.0,0.0,64,0.00,,,0.00,Wunderground v.1.15,2013-06-02 18:30:00,
2013-06-02 14:35:00,83.8,70.8,29.97,SW,225,0.0,0.0,65,0.00,,,0.00,Wunderground v.1.15,2013-06-02 18:35:00,
2013-06-02 14:40:00,83.3,70.3,29.97,West,273,0.0,2.0,65,0.00,,,0.00,Wunderground v.1.15,2013-06-02 18:40:00,
2013-06-02 14:50:00,83.2,71.1,29.97,WSW,249,0.0,4.0,67,0.00,,,0.00,Wunderground v.1.15,2013-06-02 18:50:00,
2013-06-02 14:55:00,83.5,70.9,29.97,WSW,249,0.0,4.0,66,0.00,,,0.00,Wunderground v.1.15,2013-06-02 18:55:00,
2013-06-02 15:00:00,83.7,70.7,29.96,SW,230,0.0,0.0,65,0.00,,,0.00,Wunderground v.1.15,2013-06-02 19:00:00,
2013-06-02 15:05:00,83.9,70.0,29.96,South,184,1.0,1.0,63,0.00,,,0.00,Wunderground v.1.15,2013-06-02 19:05:00,
2013-06-02 15:15:00,83.9,70.0,29.96,SW,236,0.0,0.0,63,0.00,,,0.00,Wunderground v.1.15,2013-06-02 19:15:00,
2013-06-02 15:20:00,83.7,70.2,29.96,SW,236,0.0,0.0,64,0.00,,,0.00,Wunderground v.1.15,2013-06-02 19:20:00,
2013-06-02 15:30:00,83.5,71.4,29.95,WSW,258,1.0,1.0,67,0.00,,,0.00,Wunderground v.1.15,2013-06-02 19:30:00,
2013-06-02 15:35:00,83.6,71.0,29.95,WSW,258,0.0,1.0,66,0.00,,,0.00,Wunderground v.1.15,2013-06-02 19:35:00,
2013-06-02 15:40:00,83.4,70.8,29.94,WSW,258,0.0,0.0,66,0.00,,,0.00,Wunderground v.1.15,2013-06-02 19:40:00,
2013-06-02 15:50:00,83.7,69.8,29.95,SSW,192,0.0,0.0,63,0.00,,,0.00,Wunderground v.1.15,2013-06-02 19:50:00,
2013-06-02 15:55:00,84.3,70.8,29.94,SSW,192,0.0,0.0,64,0.00,,,0.00,Wunderground v.1.15,2013-06-02 19:55:00,
2013-06-02 16:00:00,85.3,70.3,29.94,SSW,205,0.0,1.0,61,0.00,,,0.00,Wunderground v.1.15,2013-06-02 20:00:00,
2013-06-02 16:05:00,85.8,70.3,29.94,SSW,205,1.0,3.0,60,0.00,,,0.00,Wunderground v.1.15,2013-06-02 20:05:00,
2013-06-02 16:15:00,85.5,70.0,29.94,SW,217,1.0,2.0,60,0.00,,,0.00,Wunderground v.1.15,2013-06-02 20:15:00,
2013-06-02 16:25:00,85.2,70.7,29.93,West,279,1.0,1.0,62,0.00,,,0.00,Wunderground v.1.15,2013-06-02 20:25:00,
2013-06-02 16:30:00,85.6,71.1,29.93,South,169,0.0,2.0,62,0.00,,,0.00,Wunderground v.1.15,2013-06-02 20:30:00,
2013-06-02 16:35:00,86.1,71.1,29.93,SW,220,1.0,2.0,61,0.00,,,0.00,Wunderground v.1.15,2013-06-02 20:35:00,
2013-06-02 16:40:00,86.4,70.9,29.92,SW,224,1.0,1.0,60,0.00,,,0.00,Wunderground v.1.15,2013-06-02 20:40:00,
2013-06-02 16:50:00,86.4,69.9,29.92,ESE,123,1.0,1.0,58,0.00,,,0.00,Wunderground v.1.15,2013-06-02 20:50:00,
2013-06-02 16:55:00,86.0,69.0,29.92,NW,318,2.0,2.0,57,0.00,,,0.00,Wunderground v.1.15,2013-06-02 20:55:00,
2013-06-02 17:00:00,86.1,70.1,29.92,NW,319,1.0,1.0,59,0.00,,,0.00,Wunderground v.1.15,2013-06-02 21:00:00,
2013-06-02 17:05:00,85.9,69.9,29.91,NW,319,0.0,1.0,59,0.00,,,0.00,Wunderground v.1.15,2013-06-02 21:05:00,
2013-06-02 17:15:00,86.0,70.0,29.91,WSW,247,0.0,1.0,59,0.00,,,0.00,Wunderground v.1.15,2013-06-02 21:15:00,
2013-06-02 17:25:00,85.9,69.9,29.91,SW,225,1.0,1.0,59,0.00,,,0.00,Wunderground v.1.15,2013-06-02 21:25:00,
2013-06-02 17:30:00,85.9,68.9,29.91,West,271,1.0,1.0,57,0.00,,,0.00,Wunderground v.1.15,2013-06-02 21:30:00,
2013-06-02 17:35:00,85.9,68.9,29.91,West,267,0.0,1.0,57,0.00,,,0.00,Wunderground v.1.15,2013-06-02 21:35:00,
2013-06-02 17:45:00,85.5,68.5,29.91,West,267,0.0,0.0,57,0.00,,,0.00,Wunderground v.1.15,2013-06-02 21:45:00,
2013-06-02 17:50:00,85.0,68.1,29.91,West,279,0.0,0.0,57,0.00,,,0.00,Wunderground v.1.15,2013-06-02 21:50:00,
2013-06-02 17:55:00,84.9,69.0,29.91,SW,224,0.0,0.0,59,0.00,,,0.00,Wunderground v.1.15,2013-06-02 21:55:00,
2013-06-02 18:00:00,84.9,69.5,29.91,SW,224,0.0,0.0,60,0.00,,,0.00,Wunderground v.1.15,2013-06-02 22:00:00,
2013-06-02 18:05:00,84.8,70.8,29.91,SW,224,0.0,0.0,63,0.00,,,0.00,Wunderground v.1.15,2013-06-02 22:05:00,
2013-06-02 18:15:00,84.3,68.4,29.91,SW,224,0.0,0.0,59,0.00,,,0.00,Wunderground v.1.15,2013-06-02 22:15:00,
2013-06-02 18:25:00,84.3,69.9,29.91,SSW,202,0.0,2.0,62,0.00,,,0.00,Wunderground v.1.15,2013-06-02 22:25:00,
2013-06-02 18:30:00,84.6,69.7,29.90,SSW,201,0.0,0.0,61,0.00,,,0.00,Wunderground v.1.15,2013-06-02 22:30:00,
2013-06-02 18:35:00,84.6,69.7,29.91,WSW,254,0.0,0.0,61,0.00,,,0.00,Wunderground v.1.15,2013-06-02 22:35:00,
2013-06-02 18:40:00,84.6,69.2,29.90,WSW,254,0.0,0.0,60,0.00,,,0.00,Wunderground v.1.15,2013-06-02 22:40:00,
2013-06-02 18:50:00,84.6,70.1,29.90,WSW,254,0.0,0.0,62,0.00,,,0.00,Wunderground v.1.15,2013-06-02 22:50:00,
2013-06-02 18:55:00,84.4,70.9,29.91,WSW,254,0.0,0.0,64,0.00,,,0.00,Wunderground v.1.15,2013-06-02 22:55:00,
2013-06-02 19:00:00,84.1,71.1,29.91,WSW,254,0.0,0.0,65,0.00,,,0.00,Wunderground v.1.15,2013-06-02 23:00:00,
2013-06-02 19:05:00,83.6,70.1,29.91,WSW,254,0.0,0.0,64,0.00,,,0.00,Wunderground v.1.15,2013-06-02 23:05:00,
2013-06-02 19:15:00,82.8,70.7,29.91,WSW,254,0.0,0.0,67,0.00,,,0.00,Wunderground v.1.15,2013-06-02 23:15:00,
2013-06-02 19:25:00,82.1,70.1,29.91,WSW,254,0.0,0.0,67,0.00,,,0.00,Wunderground v.1.15,2013-06-02 23:25:00,
2013-06-02 19:30:00,81.7,69.7,29.91,WSW,254,0.0,0.0,67,0.00,,,0.00,Wunderground v.1.15,2013-06-02 23:30:00,
2013-06-02 19:35:00,81.4,69.8,29.91,WSW,254,0.0,0.0,68,0.00,,,0.00,Wunderground v.1.15,2013-06-02 23:35:00,
2013-06-02 19:40:00,81.1,70.8,29.91,WSW,254,0.0,0.0,71,0.00,,,0.00,Wunderground v.1.15,2013-06-02 23:40:00,
2013-06-02 19:45:00,80.9,71.0,29.92,WSW,254,0.0,0.0,72,0.00,,,0.00,Wunderground v.1.15,2013-06-02 23:45:00,
2013-06-02 19:55:00,80.2,70.8,29.92,WSW,254,0.0,0.0,73,0.00,,,0.00,Wunderground v.1.15,2013-06-02 23:55:00,
2013-06-02 20:00:00,79.7,70.7,29.92,WSW,254,0.0,0.0,74,0.00,,,0.00,Wunderground v.1.15,2013-06-03 00:00:00,
2013-06-02 20:05:00,79.3,70.3,29.92,WSW,254,0.0,0.0,74,0.00,,,0.00,Wunderground v.1.15,2013-06-03 00:05:00,
2013-06-02 20:15:00,78.7,70.1,29.93,WSW,254,0.0,0.0,75,0.00,,,0.00,Wunderground v.1.15,2013-06-03 00:15:00,
2013-06-02 20:20:00,78.5,70.3,29.92,WSW,254,0.0,0.0,76,0.00,,,0.00,Wunderground v.1.15,2013-06-03 00:20:00,
2013-06-02 20:30:00,78.0,69.8,29.93,WSW,254,0.0,0.0,76,0.00,,,0.00,Wunderground v.1.15,2013-06-03 00:30:00,
2013-06-02 20:35:00,77.8,69.6,29.93,WSW,254,0.0,0.0,76,0.00,,,0.00,Wunderground v.1.15,2013-06-03 00:35:00,
2013-06-02 20:40:00,77.6,69.4,29.93,WSW,254,0.0,0.0,76,0.00,,,0.00,Wunderground v.1.15,2013-06-03 00:40:00,
2013-06-02 20:50:00,77.3,69.1,29.93,WSW,254,0.0,0.0,76,0.00,,,0.00,Wunderground v.1.15,2013-06-03 00:50:00,
2013-06-02 20:55:00,77.1,68.6,29.92,WSW,254,0.0,0.0,75,0.00,,,0.00,Wunderground v.1.15,2013-06-03 00:55:00,
2013-06-02 21:00:00,77.0,68.9,29.92,WSW,254,0.0,0.0,76,0.00,,,0.00,Wunderground v.1.15,2013-06-03 01:00:00,
2013-06-02 21:05:00,77.0,68.9,29.93,WSW,254,0.0,0.0,76,0.00,,,0.00,Wunderground v.1.15,2013-06-03 01:05:00,
2013-06-02 21:15:00,77.0,68.9,29.92,WSW,254,0.0,0.0,76,0.00,,,0.00,Wunderground v.1.15,2013-06-03 01:15:00,
2013-06-02 21:20:00,77.0,69.2,29.92,WSW,254,0.0,0.0,77,0.00,,,0.00,Wunderground v.1.15,2013-06-03 01:20:00,
2013-06-02 21:25:00,77.1,69.3,29.92,WSW,241,0.0,0.0,77,0.00,,,0.00,Wunderground v.1.15,2013-06-03 01:25:00,
2013-06-02 21:35:00,77.7,69.9,29.92,SSE,153,0.0,0.0,77,0.00,,,0.00,Wunderground v.1.15,2013-06-03 01:35:00,
2013-06-02 21:40:00,77.9,69.7,29.92,SSE,153,0.0,0.0,76,0.00,,,0.00,Wunderground v.1.15,2013-06-03 01:40:00,
2013-06-02 21:45:00,78.1,69.9,29.92,SSE,153,0.0,0.0,76,0.00,,,0.00,Wunderground v.1.15,2013-06-03 01:45:00,
2013-06-02 21:55:00,78.5,70.3,29.92,WSW,254,0.0,0.0,76,0.00,,,0.00,Wunderground v.1.15,2013-06-03 01:55:00,
2013-06-02 22:00:00,78.5,69.9,29.91,WSW,254,0.0,0.0,75,0.00,,,0.00,Wunderground v.1.15,2013-06-03 02:00:00,
2013-06-02 22:05:00,78.4,70.2,29.92,WSW,254,0.0,0.0,76,0.00,,,0.00,Wunderground v.1.15,2013-06-03 02:05:00,
2013-06-02 22:15:00,78.2,70.0,29.92,WNW,290,0.0,0.0,76,0.00,,,0.00,Wunderground v.1.15,2013-06-03 02:15:00,
2013-06-02 22:20:00,78.1,69.9,29.93,West,272,0.0,0.0,76,0.00,,,0.00,Wunderground v.1.15,2013-06-03 02:20:00,
2013-06-02 22:30:00,77.9,69.7,29.93,SSE,147,0.0,3.0,76,0.00,,,0.00,Wunderground v.1.15,2013-06-03 02:30:00,
2013-06-02 22:35:00,77.8,69.6,29.94,WSW,252,0.0,3.0,76,0.00,,,0.00,Wunderground v.1.15,2013-06-03 02:35:00,
2013-06-02 22:40:00,77.7,69.5,29.94,East,88,0.0,0.0,76,0.00,,,0.00,Wunderground v.1.15,2013-06-03 02:40:00,
2013-06-02 22:45:00,77.6,69.8,29.94,NNE,18,0.0,0.0,77,0.00,,,0.00,Wunderground v.1.15,2013-06-03 02:45:00,
2013-06-02 22:55:00,77.5,70.1,29.95,SSE,157,1.0,4.0,78,0.00,,,0.00,Wunderground v.1.15,2013-06-03 02:55:00,
2013-06-02 23:00:00,77.4,70.0,29.95,South,179,1.0,2.0,78,0.00,,,0.00,Wunderground v.1.15,2013-06-03 03:00:00,
2013-06-02 23:05:00,77.3,69.9,29.96,WSW,241,1.0,2.0,78,0.00,,,0.00,Wunderground v.1.15,2013-06-03 03:05:00,
2013-06-02 23:15:00,77.1,70.1,29.96,NW,322,1.0,2.0,79,0.00,,,0.00,Wunderground v.1.15,2013-06-03 03:15:00,
2013-06-02 23:20:00,77.0,70.0,29.96,SW,228,0.0,0.0,79,0.00,,,0.00,Wunderground v.1.15,2013-06-03 03:20:00,
2013-06-02 23:25:00,76.9,69.9,29.96,WSW,239,0.0,0.0,79,0.00,,,0.00,Wunderground v.1.15,2013-06-03 03:25:00,
2013-06-02 23:35:00,76.7,70.1,29.96,West,281,1.0,1.0,80,0.00,,,0.00,Wunderground v.1.15,2013-06-03 03:35:00,
2013-06-02 23:40:00,76.6,70.0,29.97,West,281,1.0,1.0,80,0.00,,,0.00,Wunderground v.1.15,2013-06-03 03:40:00,
2013-06-02 23:45:00,76.6,70.3,29.97,West,263,1.0,1.0,81,0.00,,,0.00,Wunderground v.1.15,2013-06-03 03:45:00,
2013-06-02 23:55:00,76.1,70.6,29.97,SW,220,0.0,1.0,83,0.00,,,0.01,Wunderground v.1.15,2013-06-03 03:55:00,